GW7092 Weather Reports


Display with metric or nautical units.
time (UTC)temp
F
wind
direction
speed
MPH
gust
MPH
rain 1hr
in
rain 24hr
in
rain mn
in
humidity
%
barometer
mb
20260503184645 62 272 7.0 14.0 0.00 0.00 0.00 34 1051.9
20260503184142 61 254 4.0 4.0 0.00 0.00 0.00 35 1051.7
20260503183638 60 286 5.0 10.0 0.00 0.00 0.00 38 1051.8
20260503183136 60 211 7.0 9.0 0.00 0.00 0.00 33 1052.0
20260503182634 60 243 9.0 11.0 0.00 0.00 0.00 34 1051.9
20260503182132 60 227 7.0 10.0 0.00 0.00 0.00 35 1051.8
20260503181629 61 204 6.0 15.0 0.00 0.00 0.00 32 1052.2
20260503181125 60 197 3.0 8.0 0.00 0.00 0.00 35 1052.0
20260503180622 60 217 3.0 6.0 0.00 0.00 0.00 34 1052.5
20260503180120 60 280 4.0 7.0 0.00 0.00 0.00 33 1052.5
20260503175617 59 218 12.0 16.0 0.00 0.00 0.00 36 1052.6
20260503175114 60 197 7.0 10.0 0.00 0.00 0.00 33 1052.4
20260503174611 60 203 5.0 8.0 0.00 0.00 0.00 38 1052.8
20260503174108 59 215 4.0 6.0 0.00 0.00 0.00 36 1052.6
20260503173602 60 201 5.0 7.0 0.00 0.00 0.00 32 1052.8
20260503173059 59 301 3.0 6.0 0.00 0.00 0.00 33 1052.8
20260503172556 58 109 3.0 6.0 0.00 0.00 0.00 31 1052.8
20260503172054 58 277 6.0 8.0 0.00 0.00 0.00 32 1053.0
20260503171550 59 253 5.0 10.0 0.00 0.00 0.00 31 1053.2
20260503171047 59 264 7.0 11.0 0.00 0.00 0.00 33 1053.2
20260503170543 58 170 2.0 8.0 0.00 0.00 0.00 30 1053.3
20260503150936 56 259 2.0 6.0 0.00 0.00 0.00 36 1054.1
20260503150433 56 221 4.0 6.0 0.00 0.00 0.00 37 1054.3
20260503131326 47 261 3.0 3.0 0.00 0.00 0.00 63 1054.5
20260503130823 46 252 1.0 7.0 0.00 0.00 0.00 69 1054.4
20260503130321 44 190 1.0 2.0 0.00 0.00 0.00 88 1054.2
20260503110714 28 154 0.0 0.0 0.00 0.00 0.00 97 1053.8
20260503110211 28 154 0.0 0.0 0.00 0.00 0.00 97 1053.9
20260503100138 28 154 0.0 0.0 0.00 0.00 0.00 97 1053.5
20260503081532 30 154 0.0 0.0 0.00 0.00 0.00 96 1052.8
20260503081030 30 154 0.0 0.0 0.00 0.00 0.00 96 1053.1
20260503080526 30 154 0.0 0.0 0.00 0.00 0.00 96 1053.0
20260503072500 31 154 1.0 1.0 0.00 0.00 0.00 96 1052.5
20260503071956 31 154 0.0 0.0 0.00 0.00 0.00 96 1052.6
20260503071454 31 154 0.0 0.0 0.00 0.00 0.00 96 1052.6
20260503070949 32 154 0.0 0.0 0.00 0.00 0.00 96 1052.5
20260503070447 32 154 0.0 0.0 0.00 0.00 0.00 96 1052.6
20260503054900 33 154 0.0 0.0 0.00 0.00 0.00 95 1052.7
20260503054356 33 154 0.0 0.0 0.00 0.00 0.00 95 1052.7
20260503053854 33 154 0.0 0.0 0.00 0.00 0.00 95 1052.8
20260503053352 33 154 0.0 0.0 0.00 0.00 0.00 95 1052.8
20260503052848 33 154 0.0 0.0 0.00 0.00 0.00 95 1052.8
20260503052345 34 154 0.0 0.0 0.00 0.00 0.00 95 1052.7
20260503051841 34 154 0.0 0.0 0.00 0.00 0.00 95 1052.7
20260503051338 34 155 0.0 0.0 0.00 0.00 0.00 95 1052.8
20260503050835 35 154 0.0 0.0 0.00 0.00 0.00 95 1052.8
20260503050331 35 155 0.0 0.0 0.00 0.00 0.00 95 1052.6
20260503045829 35 155 0.0 0.0 0.00 0.00 0.00 95 1052.8
20260503045326 36 155 0.0 0.0 0.00 0.00 0.00 95 1052.8
20260503044822 36 155 0.0 0.0 0.00 0.00 0.00 95 1052.7
20260503044319 36 155 0.0 0.0 0.00 0.00 0.00 94 1052.6
20260503043816 36 154 0.0 0.0 0.00 0.00 0.00 94 1052.7
20260503043313 36 155 0.0 0.0 0.00 0.00 0.00 94 1052.6
20260503042809 36 154 0.0 0.0 0.00 0.00 0.00 94 1052.8
20260503042306 36 154 0.0 0.0 0.00 0.00 0.00 94 1052.5
20260503041802 37 155 0.0 0.0 0.00 0.00 0.00 94 1052.6
20260503041300 36 155 0.0 0.0 0.00 0.00 0.00 93 1052.4
20260503040757 37 155 0.0 0.0 0.00 0.00 0.00 93 1052.4
20260503040255 37 154 0.0 0.0 0.00 0.00 0.00 93 1052.2
20260503035751 37 154 0.0 0.0 0.00 0.00 0.00 93 1052.4
20260503035249 38 155 0.0 0.0 0.00 0.00 0.00 93 1052.3
20260503034746 38 155 0.0 0.0 0.00 0.00 0.00 93 1052.3
20260503034243 38 155 0.0 0.0 0.00 0.00 0.00 92 1052.3
20260503033740 39 155 0.0 0.0 0.00 0.00 0.00 92 1052.3
20260503033238 39 155 0.0 0.0 0.00 0.00 0.00 92 1052.3
20260503032736 39 155 0.0 0.0 0.00 0.00 0.00 91 1052.1
20260503032234 40 155 0.0 0.0 0.00 0.00 0.00 91 1052.1
20260503031731 40 155 0.0 0.0 0.00 0.00 0.00 91 1052.1
20260503031229 40 155 0.0 0.0 0.00 0.00 0.00 91 1052.0
20260503030725 40 155 0.0 0.0 0.00 0.00 0.00 91 1052.1
20260503030221 40 155 0.0 0.0 0.00 0.00 0.00 90 1052.3
20260503025719 40 155 0.0 0.0 0.00 0.00 0.00 90 1052.2
20260503025216 40 155 0.0 0.0 0.00 0.00 0.00 90 1052.2
20260503024712 40 155 0.0 0.0 0.00 0.00 0.00 90 1052.1
20260503024210 40 155 0.0 0.0 0.00 0.00 0.00 89 1052.0
20260503023707 40 155 0.0 0.0 0.00 0.00 0.00 88 1051.8
20260503023203 40 155 0.0 0.0 0.00 0.00 0.00 87 1051.9
20260503022700 40 155 0.0 0.0 0.00 0.00 0.00 85 1051.7
20260503022159 41 155 0.0 0.0 0.00 0.00 0.00 84 1051.5
20260503021656 41 155 0.0 0.0 0.00 0.00 0.00 83 1051.7
20260503021153 41 155 1.0 1.0 0.00 0.00 0.00 81 1051.7
20260503020650 42 155 1.0 1.0 0.00 0.00 0.00 82 1051.4
20260503020148 42 155 0.0 1.0 0.00 0.00 0.00 80 1051.5
20260503015644 42 155 1.0 1.0 0.00 0.00 0.00 80 1051.4
20260503015141 43 155 0.0 1.0 0.00 0.00 0.00 79 1051.4
20260503014637 43 155 0.0 0.0 0.00 0.00 0.00 79 1051.3
20260503014135 44 155 0.0 0.0 0.00 0.00 0.00 77 1051.3
20260503013632 44 156 1.0 1.0 0.00 0.00 0.00 76 1051.4
20260503013130 45 155 1.0 1.0 0.00 0.00 0.00 75 1051.0
20260503012627 45 102 0.0 1.0 0.00 0.00 0.00 74 1051.0
20260503012124 46 101 1.0 1.0 0.00 0.00 0.00 75 1051.0
20260503011620 46 48 0.0 0.0 0.00 0.00 0.00 74 1050.9
20260503011118 47 48 0.0 0.0 0.00 0.00 0.00 72 1051.0
20260503010613 48 48 0.0 0.0 0.00 0.00 0.00 73 1050.8
20260503010111 49 48 0.0 0.0 0.00 0.00 0.00 72 1050.8
20260503005608 50 48 0.0 1.0 0.00 0.00 0.00 66 1050.9
20260503005105 50 48 1.0 1.0 0.00 0.00 0.00 57 1050.8
20260503004601 50 48 1.0 1.0 0.00 0.00 0.00 56 1050.7
20260503004100 50 48 1.0 1.0 0.00 0.00 0.00 53 1050.8
20260503003556 50 40 2.0 2.0 0.00 0.00 0.00 54 1050.6
20260503003053 50 51 1.0 1.0 0.00 0.00 0.00 53 1050.6
20260503002550 51 37 2.0 2.0 0.00 0.00 0.00 53 1050.7
20260503002047 51 38 0.0 1.0 0.00 0.00 0.00 54 1050.4
20260503001543 51 24 1.0 1.0 0.00 0.00 0.00 55 1050.2
20260503001041 52 46 1.0 2.0 0.00 0.00 0.00 52 1050.1
20260503000538 52 33 1.0 1.0 0.00 0.00 0.00 53 1050.2
20260503000035 53 43 1.0 2.0 0.00 0.00 0.00 50 1050.1
20260502235531 53 28 1.0 1.0 0.00 0.00 0.00 53 1050.0
20260502235030 52 38 2.0 3.0 0.00 0.00 0.00 50 1050.0
20260502234525 53 351 3.0 3.0 0.00 0.00 0.00 50 1050.2
20260502234023 53 48 3.0 4.0 0.00 0.00 0.00 49 1050.0
20260502233518 53 35 2.0 2.0 0.00 0.00 0.00 49 1050.1
20260502233015 55 42 2.0 3.0 0.00 0.00 0.00 47 1050.0
20260502232511 56 20 2.0 6.0 0.00 0.00 0.00 47 1050.1
20260502232009 56 336 2.0 4.0 0.00 0.00 0.00 50 1049.9
20260502231505 55 6 2.0 3.0 0.00 0.00 0.00 49 1050.0
20260502231003 55 49 5.0 7.0 0.00 0.00 0.00 48 1049.9
20260502230501 55 14 2.0 7.0 0.00 0.00 0.00 49 1050.2
20260502225959 55 6 3.0 6.0 0.00 0.00 0.00 47 1050.1
20260502225455 55 342 2.0 3.0 0.00 0.00 0.00 49 1050.1
20260502224952 56 312 3.0 6.0 0.00 0.00 0.00 46 1050.0
20260502224448 56 46 2.0 7.0 0.00 0.00 0.00 47 1050.1
20260502223945 56 19 2.0 3.0 0.00 0.00 0.00 53 1049.9
20260502223443 55 353 1.0 4.0 0.00 0.00 0.00 50 1050.0
20260502222941 54 309 3.0 3.0 0.00 0.00 0.00 51 1050.1
20260502222438 54 320 2.0 4.0 0.00 0.00 0.00 50 1050.3
20260502221934 54 298 2.0 3.0 0.00 0.00 0.00 53 1050.3
20260502221430 54 44 0.0 2.0 0.00 0.00 0.00 51 1050.1
20260502220927 54 349 1.0 6.0 0.00 0.00 0.00 50 1050.0
20260502220423 54 337 2.0 4.0 0.00 0.00 0.00 49 1050.1
20260502215920 54 325 2.0 3.0 0.00 0.00 0.00 54 1050.1
20260502215417 54 308 3.0 4.0 0.00 0.00 0.00 53 1050.0
20260502214914 54 37 2.0 4.0 0.00 0.00 0.00 51 1050.2
20260502214411 54 353 3.0 6.0 0.00 0.00 0.00 50 1050.0
20260502213908 54 319 6.0 7.0 0.00 0.00 0.00 51 1049.9
20260502213405 54 337 3.0 6.0 0.00 0.00 0.00 50 1049.9
20260502212904 54 328 3.0 4.0 0.00 0.00 0.00 54 1049.8
20260502212402 53 50 3.0 6.0 0.00 0.00 0.00 51 1049.9
20260502211859 53 335 3.0 3.0 0.00 0.00 0.00 51 1049.9
20260502211359 53 30 2.0 4.0 0.00 0.00 0.00 51 1050.1
20260502210857 54 358 1.0 6.0 0.00 0.00 0.00 53 1050.0
20260502210354 54 332 6.0 7.0 0.00 0.00 0.00 49 1049.9
20260502205852 55 43 3.0 8.0 0.00 0.00 0.00 48 1049.9
20260502205347 55 301 5.0 7.0 0.00 0.00 0.00 47 1050.0
20260502204845 55 5 5.0 7.0 0.00 0.00 0.00 47 1050.2
20260502204342 55 328 2.0 8.0 0.00 0.00 0.00 49 1050.0
20260502203839 55 33 4.0 6.0 0.00 0.00 0.00 47 1050.0
20260502203337 55 47 5.0 7.0 0.00 0.00 0.00 48 1050.0
20260502202832 56 46 2.0 6.0 0.00 0.00 0.00 47 1050.0
20260502202330 55 314 4.0 4.0 0.00 0.00 0.00 48 1050.3
20260502201827 54 11 1.0 6.0 0.00 0.00 0.00 49 1050.2
20260502201323 54 329 4.0 6.0 0.00 0.00 0.00 50 1050.4
20260502200820 54 352 2.0 6.0 0.00 0.00 0.00 48 1050.2
20260502200315 54 63 3.0 7.0 0.00 0.00 0.00 50 1050.3
20260502195814 54 31 4.0 6.0 0.00 0.00 0.00 48 1050.4
20260502195310 54 350 5.0 6.0 0.00 0.00 0.00 48 1050.4
20260502194807 54 56 3.0 4.0 0.00 0.00 0.00 49 1050.5
20260502194304 54 61 3.0 7.0 0.00 0.00 0.00 45 1050.4
20260502193759 55 25 5.0 9.0 0.00 0.00 0.00 45 1050.3
20260502193257 55 36 5.0 7.0 0.00 0.00 0.00 47 1050.5
20260502192757 55 334 7.0 9.0 0.00 0.00 0.00 45 1050.4
20260502192255 55 47 6.0 8.0 0.00 0.00 0.00 48 1050.4
20260502191752 54 61 6.0 9.0 0.00 0.00 0.00 49 1050.5
20260502191250 54 46 7.0 8.0 0.00 0.00 0.00 49 1050.4
20260502190747 54 44 5.0 8.0 0.00 0.00 0.00 49 1050.4
20260502190244 55 58 4.0 6.0 0.00 0.00 0.00 47 1050.4
20260502185744 55 327 5.0 8.0 0.00 0.00 0.00 46 1050.4
20260502185241 55 47 1.0 4.0 0.00 0.00 0.00 43 1050.2